FENGYUN 1C DEB, 31540

Orbit data source: Space-Track

FENGYUN 1C DEB, 31540 is space debris in SSO originally from a launch on Mon, 10 May 1999 UTC launched from the Taiyaun Space Center, China (TSC). Fengyun 1C debris stems from the Chinese weather satellite Fengyun-1C, which was intentionally destroyed by a Chinese anti-satellite missile in 2007. This event dramatically increased the amount of space debris, with thousands of trackable fragments posing hazards to satellites and human spaceflight. The Fengyun 1C debris cloud has become a focal point in discussions about space sustainability and the need for international regulations to prevent the creation of new debris.

Loading next visibility...
Identifier
31540, 1999-025BYF
Orbit
SSO
Country
Flag of CNCN / PRC
Related business
Manufacturer
Unknown
Mission
Spacecraft
Bus & Motor
Unknown
Mass
Unknown
Launch date (UTC)
1999-05-10 (27 years ago)
Launch vehicle
Unknown
Launch site
Taiyaun Space Center, China (TSC)
Object type
Payload
Rocket body
Debris
Shape & HBR
Unknown shape, 0.1 m
Radar Cross Section
Small (<0.1 m²)

Expand to show TLE details & history
Last TLE update: 4 days ago

TLE from 4 days ago
0 FENGYUN 1C DEB
1 31540U 99025BYF 26165.77485330  .00005116  00000-0  72585-3 0  9998
2 31540  99.0686 349.5374 0172595  94.9084 267.1846 14.67746234  9840
Epoch: 2026-06-14T18:35Z
TLE epoch observation values (Epoch: 2026-06-14T18:35:47.325Z)
Latitude
-0.00005°
Longitude
167.51946°
Altitude
679.307 km
Speed
7.513 km/s
True Right ascension
23h 18m 08s
True Declination
0° 00' 00"
Sunlit
Object was in daylight at epoch
Visualization orbit readout
Latitude
Unknown
Longitude
Unknown
Altitude
Unknown
Speed
Unknown
Apparent Right ascension
Unknown
Apparent Declination
Unknown
Sunlit
N/A
Visualization observer readout
Local Sidereal Time
10:30:29
Azimuth
Unknown
Elevation
Unknown
Doppler factor
Unknown
Orbital elements
Apogee altitude
786.952 km
Perigee altitude
543.816 km
Semi-major axis
7,043.521 km
Eccentricity
0.01726
Inclination
99.0686°
RAAN
349.5374°
Arg. of periapsis
94.9084°
True anomaly
265.21168°
Mean anomaly
267.1846°
Eccentric anomaly
266.19788°
Mean motion
3.67163 °/min
Orbital period
98.05 mins
BSTAR
0.00072585
Loading maneuver chart data...
Computing Atmospheric mass density...

Documentation

Showing up to 5 results
|